Location: Chanteloup
(48.8560°N, 2.7390°E)
Time: 15:51:46
(UTC+00:00)

NOSS 8 (H) - Pass Details

Date: 24 October 2021
Orbit: 372 x 1792 km, 63.3° (Epoch: 27 November)

Event Time Altitude Azimuth Distance (km) Brightness Sun altitude
Rises 18:30:58 0° 225° (SW) 2,496 8.8 -18.5°
Reaches altitude 10° 18:33:13 10° 228° (SW) 1,509 7.7 -18.9°
Maximum altitude 18:36:24 70° 312° (NW) 414 4.2 -19.4°
Enters shadow 18:36:40 64° 355° (N) 429 4.2 -19.4°
